Location: *
(44.1392°N, 4.8079°E)
Time: 14:06:33
(UTC+00:00)

Lacrosse 5 rocket - Pass Details

Date: 23 October 2021
Orbit: 459 x 633 km, 57.0° (Epoch: 04 December)

Event Time Altitude Azimuth Distance (km) Brightness Sun altitude
Exits shadow 04:57:46 12° 314° (NW) 1,750 3.4 -12.8°
Maximum altitude 05:00:01 17° 348° (NNW) 1,513 3.4 -12.4°
Drops below altitude 10° 05:03:02 10° 31° (NNE) 1,966 4.5 -11.9°
Sets 05:06:03 0° 51° (NE) 2,898 5.8 -11.4°
